When you browse on this site, cookies collect data to enhance your experience and personalize the content and advertising you see.
Visit our Privacy Policy to learn more. By continuing to use the site, you agree to this use of cookies and data.
  • In Lithuania
  • List of Countries
  • For 7 days
  • Water Temperature
  • Satellite Maps
  • Weather Map
  • Weather Widgets
  • user-avatar
    Login

    Hourly Weather Canberra

    Today, 20 April, Saturday

    Time Temperature Precipitation Wind Pressure Humidity
    00:00 +14°C° 0 mm 1 mps 716 mmHg 89%
    01:00 +14°C° 0 mm 1 mps 716 mmHg 92%
    02:00 +14°C° 0 mm 1 mps 716 mmHg 93%
    03:00 +14°C° 0 mm 1 mps 716 mmHg 94%
    04:00 +14°C° 0 mm 1 mps 716 mmHg 96%
    05:00 +14°C° 0 mm 1 mps 716 mmHg 96%
    06:00 +14°C° 0 mm 1 mps 716 mmHg 96%
    07:00 +14°C° 0 mm 1 mps 716 mmHg 96%
    08:00 +16°C° 0 mm 1 mps 716 mmHg 84%
    09:00 +20°C° 0 mm 1 mps 717 mmHg 72%
    10:00 +21°C° 0 mm 0 mps 717 mmHg 60%
    11:00 +24°C° 0 mm 1 mps 717 mmHg 53%
    12:00 +26°C° 0 mm 1 mps 716 mmHg 47%
    13:00 +27°C° 0 mm 1 mps 716 mmHg 41%
    14:00 +26°C° 0 mm 1 mps 716 mmHg 41%
    15:00 +26°C° 0 mm 1 mps 715 mmHg 41%
    16:00 +26°C° 0 mm 1 mps 715 mmHg 42%
    17:00 +24°C° 0 mm 1 mps 715 mmHg 49%
    18:00 +21°C° 0 mm 1 mps 715 mmHg 57%
    19:00 +19°C° 0 mm 1 mps 715 mmHg 65%
    20:00 +18°C° 0 mm 1 mps 715 mmHg 74%
    21:00 +16°C° 0 mm 1 mps 715 mmHg 82%
    22:00 +16°C° 0 mm 1 mps 715 mmHg 91%
    23:00 +15°C° 0 mm 1 mps 715 mmHg 93%

    Tomorrow, 21 April, Sunday

    Time Temperature Precipitation Wind Pressure Humidity
    00:00 +15°C° 0 mm 1 mps 715 mmHg 95%
    01:00 +15°C° 0 mm 1 mps 715 mmHg 96%
    02:00 +15°C° 0 mm 1 mps 715 mmHg 96%
    03:00 +14°C° 0 mm 0 mps 715 mmHg 96%
    04:00 +14°C° 0 mm 0 mps 714 mmHg 96%
    05:00 +14°C° 0 mm 0 mps 714 mmHg 96%
    06:00 +14°C° 0 mm 0 mps 715 mmHg 96%
    07:00 +13°C° 0 mm 0 mps 715 mmHg 96%
    08:00 +18°C° 0 mm 1 mps 715 mmHg 84%
    09:00 +20°C° 0 mm 1 mps 715 mmHg 73%
    10:00 +23°C° 0 mm 1 mps 715 mmHg 61%
    11:00 +24°C° 0 mm 2 mps 715 mmHg 56%
    12:00 +25°C° 0 mm 2 mps 715 mmHg 50%
    13:00 +26°C° 0 mm 2 mps 714 mmHg 45%
    14:00 +26°C° 0 mm 2 mps 714 mmHg 45%
    15:00 +26°C° 0 mm 2 mps 714 mmHg 46%
    16:00 +25°C° 0 mm 2 mps 714 mmHg 46%
    17:00 +23°C° 0 mm 1 mps 713 mmHg 53%
    18:00 +22°C° 0 mm 1 mps 713 mmHg 60%
    19:00 +18°C° 0 mm 0 mps 713 mmHg 67%
    20:00 +17°C° 0 mm 0 mps 713 mmHg 70%
    21:00 +17°C° 0 mm 0 mps 713 mmHg 73%
    22:00 +18°C° 0 mm 1 mps 714 mmHg 77%
    23:00 +16°C° 0 mm 0 mps 713 mmHg 79%

    Day after tomorrow, 22 April, Monday

    Time Temperature Precipitation Wind Pressure Humidity
    00:00 +15°C° 0 mm 0 mps 713 mmHg 82%
    01:00 +15°C° 0 mm 0 mps 713 mmHg 85%
    02:00 +15°C° 0.1 mm 0 mps 713 mmHg 85%
    03:00 +15°C° 0.1 mm 0 mps 713 mmHg 86%
    04:00 +14°C° 0.1 mm 0 mps 713 mmHg 87%
    05:00 +16°C° 0.2 mm 1 mps 713 mmHg 87%
    06:00 +16°C° 0.2 mm 1 mps 713 mmHg 88%
    07:00 +16°C° 0.2 mm 1 mps 714 mmHg 88%
    08:00 +18°C° 0 mm 1 mps 714 mmHg 81%
    09:00 +20°C° 0 mm 1 mps 714 mmHg 73%
    10:00 +22°C° 0 mm 1 mps 715 mmHg 66%
    11:00 +23°C° 0.1 mm 1 mps 715 mmHg 61%
    12:00 +24°C° 0.1 mm 2 mps 714 mmHg 56%
    13:00 +25°C° 0.1 mm 2 mps 714 mmHg 52%
    14:00 +24°C° 0.9 mm 2 mps 714 mmHg 57%
    15:00 +23°C° 0.9 mm 2 mps 714 mmHg 62%
    16:00 +22°C° 0.9 mm 1 mps 714 mmHg 67%
    17:00 +20°C° 0.7 mm 2 mps 714 mmHg 76%
    18:00 +18°C° 0.7 mm 2 mps 715 mmHg 85%
    19:00 +16°C° 0.7 mm 2 mps 715 mmHg 93%
    20:00 +16°C° 0 mm 2 mps 715 mmHg 94%
    21:00 +16°C° 0 mm 2 mps 716 mmHg 95%
    22:00 +15°C° 0 mm 2 mps 716 mmHg 96%
    23:00 +15°C° 0 mm 2 mps 716 mmHg 95%

    23 April, Tuesday

    Time Temperature Precipitation Wind Pressure Humidity
    00:00 +16°C° 0 mm 2 mps 716 mmHg 94%
    01:00 +16°C° 0 mm 2 mps 716 mmHg 93%
    02:00 +16°C° 0 mm 2 mps 716 mmHg 93%
    03:00 +16°C° 0 mm 2 mps 716 mmHg 93%
    04:00 +16°C° 0 mm 1 mps 716 mmHg 93%
    05:00 +16°C° 0 mm 1 mps 716 mmHg 93%
    06:00 +15°C° 0 mm 1 mps 716 mmHg 93%
    07:00 +15°C° 0 mm 2 mps 717 mmHg 93%
    08:00 +17°C° 0 mm 2 mps 717 mmHg 87%
    09:00 +18°C° 0 mm 2 mps 717 mmHg 80%
    10:00 +19°C° 0 mm 3 mps 718 mmHg 73%
    11:00 +20°C° 0 mm 3 mps 717 mmHg 68%
    12:00 +21°C° 0 mm 3 mps 717 mmHg 62%
    13:00 +24°C° 0 mm 2 mps 717 mmHg 56%
    14:00 +23°C° 0 mm 2 mps 716 mmHg 61%
    15:00 +21°C° 0 mm 3 mps 716 mmHg 66%
    16:00 +20°C° 0 mm 3 mps 716 mmHg 70%
    17:00 +18°C° 0 mm 2 mps 716 mmHg 78%
    18:00 +17°C° 0 mm 2 mps 716 mmHg 86%
    19:00 +15°C° 0 mm 2 mps 716 mmHg 94%
    20:00 +15°C° 0 mm 1 mps 716 mmHg 95%
    21:00 +14°C° 0 mm 1 mps 716 mmHg 96%
    22:00 +14°C° 0 mm 1 mps 716 mmHg 96%
    23:00 +14°C° 0 mm 1 mps 716 mmHg 96%

    24 April, Wednesday

    Time Temperature Precipitation Wind Pressure Humidity
    00:00 +14°C° 0 mm 1 mps 716 mmHg 97%
    01:00 +13°C° 0 mm 1 mps 715 mmHg 97%
    02:00 +14°C° 0 mm 1 mps 715 mmHg 96%
    03:00 +14°C° 0 mm 1 mps 715 mmHg 96%
    04:00 +14°C° 0 mm 1 mps 715 mmHg 95%
    05:00 +14°C° 0 mm 1 mps 715 mmHg 95%
    06:00 +13°C° 0 mm 0 mps 715 mmHg 94%
    07:00 +13°C° 0 mm 0 mps 715 mmHg 94%
    08:00 +15°C° 0 mm 0 mps 716 mmHg 84%
    09:00 +19°C° 0 mm 1 mps 716 mmHg 74%
    10:00 +22°C° 0 mm 1 mps 716 mmHg 63%
    11:00 +23°C° 0 mm 2 mps 716 mmHg 59%
    12:00 +24°C° 0 mm 2 mps 715 mmHg 55%
    13:00 +25°C° 0 mm 3 mps 714 mmHg 51%
    14:00 +25°C° 0.1 mm 3 mps 714 mmHg 53%
    15:00 +24°C° 0.1 mm 3 mps 714 mmHg 56%
    16:00 +24°C° 0.1 mm 3 mps 713 mmHg 58%
    17:00 +21°C° 0.1 mm 3 mps 713 mmHg 67%
    18:00 +19°C° 0.1 mm 2 mps 713 mmHg 76%
    19:00 +17°C° 0.1 mm 2 mps 713 mmHg 85%
    20:00 +16°C° 0 mm 2 mps 713 mmHg 87%
    21:00 +16°C° 0 mm 2 mps 713 mmHg 88%
    22:00 +15°C° 0 mm 2 mps 713 mmHg 90%
    23:00 +15°C° 0 mm 2 mps 713 mmHg 90%

    25 April, Thursday

    Time Temperature Precipitation Wind Pressure Humidity
    00:00 +15°C° 0 mm 2 mps 713 mmHg 90%
    01:00 +15°C° 0 mm 2 mps 713 mmHg 91%
    02:00 +14°C° 0 mm 1 mps 713 mmHg 91%
    03:00 +14°C° 0 mm 1 mps 712 mmHg 91%
    04:00 +13°C° 0 mm 1 mps 712 mmHg 92%
    05:00 +13°C° 0 mm 1 mps 713 mmHg 91%
    06:00 +12°C° 0 mm 1 mps 713 mmHg 91%
    07:00 +12°C° 0 mm 1 mps 713 mmHg 91%
    08:00 +14°C° 0 mm 1 mps 714 mmHg 76%
    09:00 +18°C° 0 mm 1 mps 714 mmHg 62%
    10:00 +20°C° 0 mm 2 mps 715 mmHg 47%
    11:00 +21°C° 0 mm 2 mps 714 mmHg 42%
    12:00 +22°C° 0 mm 3 mps 714 mmHg 37%
    13:00 +24°C° 0 mm 3 mps 713 mmHg 32%
    14:00 +22°C° 0 mm 4 mps 713 mmHg 35%
    15:00 +21°C° 0 mm 4 mps 713 mmHg 37%
    16:00 +21°C° 0 mm 4 mps 712 mmHg 39%
    17:00 +19°C° 0 mm 3 mps 713 mmHg 47%
    18:00 +16°C° 0 mm 3 mps 713 mmHg 55%
    19:00 +13°C° 0 mm 3 mps 713 mmHg 62%
    20:00 +13°C° 0 mm 2 mps 713 mmHg 66%
    21:00 +13°C° 0 mm 2 mps 713 mmHg 69%
    22:00 +12°C° 0 mm 2 mps 713 mmHg 73%
    23:00 +10°C° 0 mm 2 mps 712 mmHg 72%
    Show more